Lebanon, NH

7:47 PM EDT on April 26, 2018 (GMT -0400)
Lebanon Municipal

Weather History for KLEB - February, 2013

Change the Weather History Date:

Saturday, February 23, 2013

  Actual Average Record
Temperature  
Mean Temperature 34 °F -  
Max Temperature 35 °F 35 °F 60 °F (2017)
Min Temperature 32 °F 18 °F -18 °F (2015)
Degree Days  
Heating Degree Days 32    
Moisture  
Dew Point 27 °F    
Average Humidity 81    
Maximum Humidity 93    
Minimum Humidity 54    
Precipitation  
Precipitation 0.09 in - - ()
Sea Level Pressure  
Sea Level Pressure 30.05 in    
Wind  
Wind Speed 2 mph (SSE)    
Max Wind Speed 7 mph    
Max Gust Speed -    
Visibility 4 miles    
Events Snow    
Averages and records for this station are not official NWS values.
T = Trace of Precipitation, MM = Missing Value Source: NWS Daily Summary

Daily Weather History Graph

Daily Weather History Graph

Search for Another Location

Airport or City:

Astronomy

Feb. 23, 2013 Rise Set
Actual Time 6:35 AM EST 5:30 PM EST
Civil Twilight 6:06 AM EST 5:59 PM EST
Nautical Twilight 5:32 AM EST 6:32 PM EST
Astronomical Twilight 4:59 AM EST 7:05 PM EST
Moon 3:36 PM EST (2/23) 4:58 AM EST (2/23)
Length of Visible Light 11h 53m
Length of Day
10h 55m
Waxing Gibbous, 95% of the Moon is Illuminated
Feb 23
Waxing Gibbous
Feb 25
Full
Mar 4
Last Quarter
Mar 11
New
Mar 19
First Quarter

Hourly Weather History & Observations

Time (EST) Temp. Windchill Dew Point Humidity Pressure Visibility Wind Dir Wind Speed Gust Speed Precip Events Conditions
12:53 AM 33.1 °F - 18.0 °F 54% 30.28 in 10.0 mi Calm Calm - N/A   Overcast
1:53 AM 33.1 °F 28.7 °F 19.0 °F 56% 30.26 in 10.0 mi SSE 4.6 mph - N/A   Overcast
2:53 AM 32.0 °F 26.4 °F 21.9 °F 66% 30.25 in 10.0 mi South 5.8 mph - N/A   Overcast
3:53 AM 33.1 °F - 21.0 °F 61% 30.23 in 10.0 mi Calm Calm - N/A   Overcast
4:53 AM 32.0 °F 28.7 °F 21.0 °F 64% 30.23 in 10.0 mi South 3.5 mph - N/A   Overcast
5:53 AM 32.0 °F - 19.9 °F 61% 30.22 in 10.0 mi Calm Calm - N/A   Overcast
6:53 AM 32.0 °F 28.7 °F 19.0 °F 59% 30.21 in 10.0 mi SSE 3.5 mph - N/A   Overcast
7:53 AM 32.0 °F 26.4 °F 21.0 °F 64% 30.20 in 10.0 mi SE 5.8 mph - N/A   Overcast
8:53 AM 33.1 °F 28.7 °F 21.9 °F 64% 30.20 in 10.0 mi Variable 4.6 mph - N/A   Overcast
9:53 AM 34.0 °F 31.0 °F 23.0 °F 64% 30.17 in 10.0 mi Variable 3.5 mph - N/A   Overcast
10:53 AM 34.0 °F 31.0 °F 23.0 °F 64% 30.16 in 10.0 mi SE 3.5 mph - N/A   Overcast
11:27 AM 33.8 °F 27.7 °F 24.8 °F 70% 30.12 in 10.0 mi SSE 6.9 mph - N/A   Overcast
11:53 AM 35.1 °F - 25.0 °F 67% 30.13 in 10.0 mi Calm Calm - N/A   Overcast
12:09 PM 35.6 °F - 24.8 °F 65% 30.09 in 10.0 mi Calm Calm - N/A   Overcast
12:53 PM 34.0 °F 29.8 °F 27.0 °F 75% 30.10 in 7.0 mi SSE 4.6 mph - 0.00 in   Overcast
1:03 PM 33.8 °F 29.6 °F 26.6 °F 75% 30.08 in 5.0 mi SE 4.6 mph - 0.00 in Snow Light Snow
1:38 PM 33.8 °F - 26.6 °F 75% 30.07 in 2.0 mi Calm Calm - 0.00 in Snow Light Snow
1:53 PM 34.0 °F 31.0 °F 27.0 °F 75% 30.10 in 2.0 mi ESE 3.5 mph - 0.00 in Snow Light Snow
2:09 PM 33.8 °F 29.6 °F 26.6 °F 75% 30.07 in 4.0 mi SE 4.6 mph - 0.00 in Snow Light Snow
2:32 PM 33.8 °F 30.8 °F 28.4 °F 81% 30.05 in 2.5 mi South 3.5 mph - 0.01 in Snow Light Snow
2:39 PM 33.8 °F 29.6 °F 28.4 °F 81% 30.06 in 2.5 mi South 4.6 mph - 0.01 in Snow Light Snow
2:41 PM 33.8 °F 29.6 °F 28.4 °F 81% 30.06 in 3.0 mi South 4.6 mph - 0.01 in Snow Light Snow
2:53 PM 34.0 °F 28.0 °F 27.0 °F 75% 30.08 in 8.0 mi South 6.9 mph - 0.01 in   Overcast
3:48 PM 33.8 °F - 28.4 °F 81% 30.04 in 1.8 mi Calm Calm - 0.00 in Snow Light Snow
3:49 PM 34.0 °F - 28.0 °F 79% 30.06 in 1.8 mi Calm Calm - 0.00 in Snow Light Snow
4:07 PM 33.8 °F - 28.4 °F 81% 30.03 in 3.0 mi Calm Calm - 0.00 in Snow Light Snow
4:34 PM 33.8 °F - 30.2 °F 87% 30.04 in 1.8 mi Calm Calm - 0.00 in Snow Light Snow
4:41 PM 33.8 °F - 30.2 °F 87% 30.03 in 0.8 mi Calm Calm - 0.00 in Snow Light Snow
4:43 PM 33.8 °F - 30.2 °F 87% 30.03 in 1.8 mi Calm Calm - 0.00 in Snow Light Snow
4:53 PM 33.1 °F - 30.0 °F 89% 30.05 in 1.8 mi Calm Calm - 0.01 in Snow Light Snow
5:31 PM 33.8 °F - 30.2 °F 87% 30.01 in 2.5 mi Calm Calm - 0.00 in Snow Light Snow
5:38 PM 33.8 °F - 30.2 °F 87% 30.01 in 5.0 mi Calm Calm - 0.00 in   Overcast
5:53 PM 33.1 °F - 30.0 °F 89% 30.04 in 7.0 mi Calm Calm - 0.00 in   Overcast
6:53 PM 32.0 °F - 30.0 °F 92% 30.03 in 5.0 mi Calm Calm - 0.00 in   Overcast
7:17 PM 32.0 °F - 30.2 °F 93% 29.99 in 2.5 mi Calm Calm - 0.01 in Snow Light Snow
7:24 PM 32.0 °F - 30.2 °F 93% 30.00 in 3.0 mi Calm Calm - 0.01 in Snow Light Snow
7:53 PM 32.0 °F - 28.9 °F 88% 30.01 in 3.0 mi Calm Calm - 0.01 in Snow Light Snow
8:00 PM 32.0 °F - 28.4 °F 87% 29.98 in 2.5 mi Calm Calm - 0.00 in Snow Light Snow
8:07 PM 32.0 °F - 28.4 °F 87% 29.98 in 3.0 mi Calm Calm - 0.00 in Snow Light Snow
8:15 PM 32.0 °F - 28.4 °F 87% 29.98 in 1.8 mi Calm Calm - 0.01 in Snow Light Snow
8:23 PM 33.8 °F - 30.2 °F 87% 29.99 in 0.8 mi Calm Calm - 0.02 in Snow Light Snow
8:33 PM 33.8 °F - 30.2 °F 87% 29.99 in 1.2 mi Calm Calm - 0.02 in Snow Light Snow
8:37 PM 32.0 °F - 30.2 °F 93% 29.98 in 1.0 mi Calm Calm - 0.03 in Snow Light Snow
8:48 PM 32.0 °F - 30.2 °F 93% 29.98 in 1.2 mi Calm Calm - 0.03 in Snow Light Snow
8:53 PM 32.0 °F - 30.0 °F 92% 30.00 in 1.2 mi Calm Calm - 0.03 in Snow Light Snow
9:08 PM 32.0 °F - 28.4 °F 87% 29.98 in 0.8 mi Calm Calm - 0.00 in   Overcast
9:19 PM 32.0 °F - 30.2 °F 93% 29.97 in 1.2 mi Calm Calm - 0.00 in   Overcast
9:27 PM 32.0 °F - 30.2 °F 93% 29.97 in 1.2 mi Calm Calm - 0.00 in   Overcast
9:53 PM 32.0 °F - 30.0 °F 92% 29.99 in 1.0 mi Calm Calm - 0.01 in Snow Light Snow
10:10 PM 32.0 °F - 30.2 °F 93% 29.95 in 0.8 mi Calm Calm - 0.01 in Snow Light Snow
10:26 PM 32.0 °F 28.7 °F 30.2 °F 93% 29.94 in 1.2 mi NNE 3.5 mph - 0.01 in Snow Light Snow
10:38 PM 32.0 °F 28.7 °F 30.2 °F 93% 29.93 in 2.0 mi NNE 3.5 mph - 0.02 in Snow Light Snow
10:53 PM 32.0 °F - 30.0 °F 92% 29.95 in 3.0 mi Calm Calm - 0.02 in Snow Light Snow
11:13 PM 32.0 °F - 30.2 °F 93% 29.93 in 2.5 mi Calm Calm - 0.00 in Snow Light Snow
11:32 PM 32.0 °F - 30.2 °F 93% 29.93 in 4.0 mi Calm Calm - 0.00 in   Overcast
11:43 PM 32.0 °F - 30.2 °F 93% 29.92 in 4.0 mi Calm Calm - 0.00 in   Overcast
11:53 PM 32.0 °F - 30.0 °F 92% 29.95 in 4.0 mi Calm Calm - 0.00 in   Overcast